www.pogodaiklimat.ru

Погода и климат >> Архив погоды >> Россия >> Чувашия >> Канаш


ПОГОДА в Канаше

  • Прогноз погоды в Канаше
  • Монитор погоды в Канаше
  • Климат города

АРХИВ ПОГОДЫ в Канаше

Время (UTC), дата Ветер
(напр.,м/с)
 
Видим.   Явления Облачность Т
(С)
Тd
(С)
f
(%)
Тe
(С)
Тes
(С)
Комфортность P
(гПа)
Po
(гПа)
Тmin
(С)
Tmax
(С)
R
(мм)
R24
(мм)
S
(см)
03 8.12 Ю 1-2
{3}
10 км 10/10 300 м
[St]
-6.7 -8.3 88 -9 -9 1017.2 993.6 -8.3 0.2 9
06 8.12 ЮВ 2-3
{3}
10 км 10/10 300 м
[St]
-6.7 -7.9 91 -11 -11 1018.0 994.4
09 8.12 Ю 2-4
{5}
10 км 10/10 300 м
[St]
-5.8 -6.9 92 -10 -10 1018.6 995.1
12 8.12 ЮВ 3-4
{5}
10 км 10/10 300 м
[St]
-5.0 -7.1 85 -10 -10 1018.6 995.1
15 8.12 ЮВ 4-6
{7}
10 км позёмок 10/10 600 м
[Sc]
-5.1 -7.2 85 -12 -12 1019.0 995.5 -4.8
18 8.12 ЮВ 2-4
{7}
10 км слабый снег {метель} 10/10 600 м
[Sc]
-4.9 -7.0 85 -9 -9 1019.1 995.6
21 8.12 ЮВ 3-4
{5}
10 км слабый снег 10/10 300 м
[Frnb]
-4.8 -6.5 88 -10 -10 1018.8 995.4
00 9.12 ЮВ 2-3
{5}
10 км слабый снег 10/10 300 м
[Frnb]
-4.5 -5.8 91 -9 -9 1018.4 995.0
03 9.12 ЮВ 2-3
{4}
10 км слабый снег 10/10 300 м
[Frnb Ns]
-4.0 -5.5 89 -8 -8 1017.9 994.5 -5.2 2 10
06 9.12 ЮВ 1-2
{3}
2000 м снег 10/10 300 м
[Frnb Ns]
-4.0 -5.5 89 -6 -6 1017.8 994.4
09 9.12 Ю 2-3
{3}
10 км слабый снег 10/10 600 м
[Sc]
-3.5 -5.3 87 -8 -8 1017.7 994.4
12 9.12 ЮВ 2-3
{4}
20 км {снег} 10/10 600 м
[Sc]
-3.4 -5.9 83 -7 -7 1017.8 994.5
15 9.12 ЮВ 2-3
{3}
10 км 10/10 600 м
[Sc]
-3.8 -5.6 87 -8 -8 1018.0 994.7 -3.0 2
18 9.12 Ю 2-3
{4}
10 км 10/10 600 м
[Sc]
-4.2 -6.5 84 -8 -8 1018.1 994.7
21 9.12 Ю 2-4
{5}
10 км 10/10 600 м
[Sc]
-4.9 -7.3 83 -9 -9 1018.3 994.8
00 10.12 ЮВ 4-6
{7}
10 км слабый снег 10/10 300 м
[Frnb]
-4.8 -6.5 88 -11 -11 1018.1 994.7
03 10.12 ЮВ 5-9
{9}
10 км слабый снег 10/10 300 м
[Frnb]
-4.8 -6.2 90 -12 -12 1017.8 994.3 -5.2 1 11
06 10.12 ЮВ 6-9
{10}
20 км позёмок {снег, метель} 10/10 300 м
[Frnb]
-4.3 -5.9 89 -12 -12 1017.4 994.0
09 10.12 ЮВ 6-9
{11}
10 км слабый снег {метель} 10/10 300 м
[Frnb Ns]
-3.0 -5.0 86 -10 -10 1017.4 994.1
12 10.12 ЮВ 6-10
{11}
10 км слабый снег {метель} 10/10 300 м
[Frnb]
-2.9 -4.6 88 -10 -10 1018.1 994.8
15 10.12 ЮВ 6-10
{11}
10 км слабый снег 10/10 300 м
[Frnb]
-2.9 -4.9 86 -10 -10 1018.3 995.0 -2.5 1
18 10.12 Ю 5-9
{11}
10 км слабый снег 10/10 300 м
[Frnb]
-2.2 -4.0 87 -9 -9 1018.8 995.6
21 10.12 Ю 3-5
{9}
10 км {снег, метель} 10/10 600 м
[Sc]
-1.7 -3.8 86 -7 -7 1019.8 996.7
00 11.12 Ю 5-8
{8}
10 км позёмок {снег, метель} 10/10 600 м
[Sc]
-1.7 -4.1 84 -8 -8 1020.4 997.3
03 11.12 ЮВ 7-11
{11}
10 км позёмок {метель} 10/10 600 м
[Sc]
-2.5 -4.4 87 -10 -10 1021.0 997.7 -2.9 0.3 12
06 11.12 ЮВ 7-10
{11}
20 км позёмок {метель} 10/10 600 м
[Sc]
-3.0 -5.4 83 -11 -11 1022.0 998.6 -3.1
09 11.12 ЮВ 5-9
{11}
20 км позёмок {метель} 10/10 600 м
[Sc]
-3.8 -6.0 85 -11 -11 1022.3 998.9
12 11.12 ЮВ 6-10
{11}
20 км позёмок {метель} 10/10 600 м
[Sc]
-4.8 -6.5 88 -13 -13 1022.5 999.0
15 11.12 ЮВ 6-9
{10}
10 км позёмок {снег, метель} 10/10 600 м
[Sc]
-4.9 -7.0 85 -13 -13 1022.3 998.7 -2.3 0.0
18 11.12 ЮВ 6-9
{10}
10 км позёмок {снег, метель} 10/10 600 м
[Sc]
-5.3 -7.1 87 -13 -13 1022.1 998.5
21 11.12 ЮВ 6-9
{10}
10 км позёмок {метель} 10/10 600 м
[Sc]
-4.8 -6.8 86 -13 -13 1022.6 999.1
00 12.12 ЮВ 5-7
{8}
10 км позёмок {метель} 10/10 600 м
[Sc]
-4.9 -6.6 88 -12 -12 1022.6 999.0
03 12.12 ЮВ 5-7
{8}
10 км позёмок {метель} ясно -5.8 -7.6 87 -13 -13 1022.4 998.7 -6.0 13
06 12.12 ЮВ 4-6
{8}
20 км позёмок {метель} 9/8 600 м
[Sc Ci fib]
-6.4 -9.2 80 -13 -13 1022.7 999.0 -6.6
09 12.12 ЮВ 4-6
{7}
20 км позёмок {метель} 6/4 600 м
[Sc Ci fib]
-6.3 -10.3 73 -13 -12 1022.0 998.3
12 12.12 Ю 1-2
{8}
20 км {метель} 8/3 600 м
[Sc Ci fib]
-6.1 -11.0 68 -8 -8 1021.6 997.9
15 12.12 ЮВ 3-5
{6}
10 км 5/1 600 м
[Sc Ci fib]
-8.6 -12.9 71 -14 -14 1021.8 997.9 -5.7
18 12.12 ЮВ 3-5
{7}
10 км 8/4 600 м
[Sc Ci fib]
-9.1 -13.6 70 -15 -15 1021.0 997.2
21 12.12 В 2-3
{5}
10 км 9/0
[Ci fib]
-9.9 -14.1 71 -14 -14 1021.2 997.2
00 13.12 В 2-3
{6}
10 км 6/6 600 м
[Sc]
-9.1 -14.1 67 -13 -13 1020.9 997.1
03 13.12 В 2-3
{4}
10 км слабый снег 10/10 600 м
[Frnb]
-8.3 -12.0 75 -13 -13 1021.1 997.3 -10.2 0.0 13
06 13.12 В 2-3
{4}
10 км слабый снег 10/0
[As op]
-7.7 -9.9 84 -12 -12 1021.5 997.7
09 13.12 В 2-3
{5}
10 км снежные зёрна 10/10 300 м
[St]
-6.5 -8.5 86 -11 -11 1022.8 999.1
12 13.12 С 2-3
{4}
20 км {снег} 10/10 300 м
[St]
-6.8 -8.4 88 -11 -11 1023.3 999.5
15 13.12 СВ 1-2
{4}
2000 м дымка 10/10 300 м
[St]
-6.5 -7.7 91 -9 -9 1024.6 1000.9 -6.2 0.2
18 13.12 СВ 3-4
{4}
2000 м дымка {снег} 10/10 300 м
[St]
-5.5 -6.9 90 -11 -11 1025.3 1001.7
21 13.12 СВ 3-5
{6}
10 км 10/10 300 м
[Frnb]
-5.3 -6.7 90 -11 -11 1025.4 1001.8
00 14.12 СВ 4-6
{7}
10 км позёмок 10/10 600 м
[Sc]
-4.6 -6.2 89 -11 -11 1025.8 1002.3
03 14.12 СВ 4-6
{8}
10 км позёмок {метель} 10/10 600 м
[Sc]
-3.6 -5.8 85 -10 -10 1025.3 1001.9 -6.6 0.0 13
06 14.12 СВ 6-9
{9}
20 км позёмок {метель} 9/9 600 м
[Sc]
-3.5 -6.3 81 -11 -11 1025.1 1001.7
09 14.12 СВ 4-7
{9}
20 км позёмок {метель} 10/10 600 м
[Sc]
-2.9 -5.2 84 -9 -9 1025.5 1002.1
12 14.12 СВ 5-8
{9}
4000 м позёмок {метель} 10/10 300 м
[St]
-2.6 -3.9 91 -9 -9 1025.4 1002.1
15 14.12 СВ 6-9
{11}
10 км позёмок {метель} 10/10 600 м
[Sc]
-3.7 -5.2 89 -11 -11 1025.5 1002.1 -2.5
18 14.12 СВ 4-8
{10}
10 км позёмок {метель} 10/10 600 м
[Sc]
-4.5 -6.1 89 -11 -11 1025.6 1002.1
21 14.12 СВ 4-8
{8}
10 км снежные зёрна {метель} 10/10 300 м
[St]
-5.7 -7.1 90 -12 -12 1025.6 1002.0

 

Местоположение метеостанции Канаш (Чувашия, Россия): широта 55.52 долгота 47.47 высота над уровнем моря 183 м.

В архиве по умолчанию представлена погода в Канаше за последнюю неделю. Архивные данные за месяц целиком и за предыдущие месяцы, начиная с января 2011 года, Вы можете получить, выбрав интересующий диапазон дат из раскрывающегося списка и нажав кнопку "Ввод!".


*Определитесь, кто Вы:
робот инопланетянин человек

Внимание! Время в таблицах - всемирное. Для получения местного времени необходимо прибавить поправку, которая в Канаше равна 3 ч.

Смотрите также архив погоды в соседних городах и на ближайших метеорологических станциях:

Погода в Больших Кайбицах (Татарстан, Россия) (47 км)
Погода в Батырево (Чувашия, Россия) (51 км)
Погода в Чебоксарах (Чувашия, Россия) (63 км)
Погода в Вязовых (Татарстан, Россия) (74 км)
Погода в Порецком (Чувашия, Россия) (81 км)
Погода в Дрожжаном (Татарстан, Россия) (89 км)
Погода в Алатыре (Чувашия, Россия) (96 км)
Погода в Тетюшах (Татарстан, Россия) (105 км)
Погода в Козьмодемьянске (Марий-Эл, Россия) (106 км)
Погода в Казани (Татарстан, Россия) (111 км)

Пояснения к столбцам:

Ветер - указаны скорость ветра в м/с - средняя за 10 мин, порывы в срок и между сроками (в фигурных скобках) и направление, откуда дует ветер: С - северный, СВ - северо-восточный, В - восточный, ЮВ - юго-восточный, Ю - южный, ЮЗ - юго-западный, З - западный, СЗ - северо-западный.
Видимость - горизонтальная дальность видимости в метрах или километрах. При видимости от 1 до 10 км при отсутствии осадков обычно наблюдается дымка, при ухудшении видимости до 1 км и менее - туман. В сухую погоду видимость может ухудшаться дымом, пылью или мглою.
Явления - указаны атмосферные явления, наблюдавшиеся в срок или в последний час перед сроком; фигурными скобками обозначены явления, наблюдавшиеся между сроками (за 1-3 часа до срока); квадратными скобками обозначены град или гололедные отложения с указанием их диаметра в мм.
Облачность - указаны через наклонную черту общая и нижняя облачность в баллах и высота нижней границы облаков в метрах; квадратными скобками обозначены формы облаков: Ci - перистые, Cs - перисто-слоистые, Cc - перисто-кучевые, Ac - высококучевые, As - высокослоистые, Sc - слоисто-кучевые, Ns - слоисто-дождевые, Cu - кучевые, Cb - кучево-дождевые. Подробнее классификацию облаков см. в Атласе облаков (PDF).
T - Температура воздуха - температура, измеренная на высоте 2 м над землей.
Td - Температура точки росы - температура, при понижении до которой содержащийся в воздухе водяной пар достигнет насыщения.
f - Относительная влажность воздуха - влажноcть воздуха, измеренная на высоте 2 м над землей.
Te - Эффективная температура - температура, которую ощущает одетый по сезону человек в тени. Характеристика душности погоды. При расчете учитывается влияние влажности воздуха и скорости ветра на теплоощущения человека.
Tes - Эффективная температура на солнце - температура, которую ощущает человек, с поправкой на солнечный нагрев. Характеристика знойности погоды. Зависит от высоты солнца над горизонтом, облачности и скорости ветра. Ночью, в пасмурную погоду, а также при ветре 12 м/с и более поправка равна нулю.
P - Атмосферное давление - приведенное к уровню моря атмосферное давление.
Po - Атмосферное давление - измеренное на уровне метеостанции атмосферное давление.
Tmin - Минимальная температура - минимум температуры воздуха на высоте 2 м над землей.
Tmax - Максимальная температура - максимум температуры воздуха на высоте 2 м над землей.
R - Количество осадков - Количество выпавших осадков за период времени, мм. При наведении курсора мыши на число - период времени, за который выпало указанное количество осадков.
R24 - Количество осадков - Количество выпавших осадков за 24 часа, мм.
S - Снежный покров - Высота снежного покрова, см. При наведении курсора мыши на число - состояние снежного покрова и степень покрытия местности в баллах.